Volver al catálogo

STARLINK-11560

ActivoComunicacionesVLEO
NORAD 62917·PAYLOAD·🇺🇸 United States

Lanzado Feb 8, 2025 desde Cape Canaveral Space Force Station

Loading…

Próximos Pases (próximas 24 horas)

TLE

ActualizadoSource: CelesTrak SupGP

Época: Sep 15, 2026, 03:42 UTC

1 62917C 25027L   26258.15465278  .00039655  00000+0  30782-3 0  2580
2 62917  43.0004 285.5871 0001543 251.5003 356.2494 15.70833098    11

Sigue STARLINK-11560 en tiempo real con AllMySat

Download on the App Store